Year,Month,Day,Hour,Minute,Value (Times are PST for temperature in C)
2015,05,29,00,00,15.40
2015,05,29,00,01,15.30
2015,05,29,00,02,15.30
2015,05,29,00,03,15.30
2015,05,29,00,04,15.30
2015,05,29,00,05,15.30
2015,05,29,00,06,15.30
2015,05,29,00,07,15.30
2015,05,29,00,08,15.20
2015,05,29,00,09,15.20
2015,05,29,00,10,15.10
2015,05,29,00,11,15.10
2015,05,29,00,12,15.10
2015,05,29,00,13,15.00
2015,05,29,00,14,15.00
2015,05,29,00,15,15.00
2015,05,29,00,16,15.00
2015,05,29,00,17,15.00
2015,05,29,00,18,14.90
2015,05,29,00,19,14.90
2015,05,29,00,20,14.90
2015,05,29,00,21,14.90
2015,05,29,00,22,14.90
2015,05,29,00,23,14.90
2015,05,29,00,24,14.90
2015,05,29,00,25,14.90
2015,05,29,00,26,14.90
2015,05,29,00,27,14.90
2015,05,29,00,28,14.90
2015,05,29,00,29,14.90
2015,05,29,00,30,14.90
2015,05,29,00,31,14.90
2015,05,29,00,32,14.90
2015,05,29,00,33,14.80
2015,05,29,00,34,14.80
2015,05,29,00,35,14.80
2015,05,29,00,36,14.80
2015,05,29,00,37,14.70
2015,05,29,00,38,14.70
2015,05,29,00,39,14.70
2015,05,29,00,40,14.70
2015,05,29,00,41,14.60
2015,05,29,00,42,14.60
2015,05,29,00,43,14.60
2015,05,29,00,44,14.60
2015,05,29,00,45,14.60
2015,05,29,00,46,14.60
2015,05,29,00,47,14.60
2015,05,29,00,48,14.60
2015,05,29,00,49,14.60
2015,05,29,00,50,14.60
2015,05,29,00,51,14.50
2015,05,29,00,52,14.50
2015,05,29,00,53,14.50
2015,05,29,00,54,14.50
2015,05,29,00,55,14.50
2015,05,29,00,56,14.40
2015,05,29,00,57,14.40
2015,05,29,00,58,14.40
2015,05,29,00,59,14.40
2015,05,29,01,00,14.40
2015,05,29,01,01,14.40
2015,05,29,01,02,14.30
2015,05,29,01,03,14.30
2015,05,29,01,04,14.30
2015,05,29,01,05,14.30
2015,05,29,01,06,14.30
2015,05,29,01,07,14.30
2015,05,29,01,08,14.20
2015,05,29,01,09,14.20
2015,05,29,01,10,14.20
2015,05,29,01,11,14.20
2015,05,29,01,12,14.20
2015,05,29,01,13,14.20
2015,05,29,01,14,14.20
2015,05,29,01,15,14.20
2015,05,29,01,16,14.20
2015,05,29,01,17,14.20
2015,05,29,01,18,14.20
2015,05,29,01,19,14.20
2015,05,29,01,20,14.20
2015,05,29,01,21,14.20
2015,05,29,01,22,14.10
2015,05,29,01,23,14.10
2015,05,29,01,24,14.10
2015,05,29,01,25,14.00
2015,05,29,01,26,14.00
2015,05,29,01,27,14.00
2015,05,29,01,28,14.00
2015,05,29,01,29,13.90
2015,05,29,01,30,13.90
2015,05,29,01,31,13.90
2015,05,29,01,32,13.90
2015,05,29,01,33,13.90
2015,05,29,01,34,13.80
2015,05,29,01,35,13.80
2015,05,29,01,36,13.80
2015,05,29,01,37,13.80
2015,05,29,01,38,13.80
2015,05,29,01,39,13.70
2015,05,29,01,40,13.70
2015,05,29,01,41,13.70
2015,05,29,01,42,13.60
2015,05,29,01,43,13.60
2015,05,29,01,44,13.60
2015,05,29,01,45,13.60
2015,05,29,01,46,13.60
2015,05,29,01,47,13.50
2015,05,29,01,48,13.50
2015,05,29,01,49,13.40
2015,05,29,01,50,13.40
2015,05,29,01,51,13.40
2015,05,29,01,52,13.40
2015,05,29,01,53,13.40
2015,05,29,01,54,13.30
2015,05,29,01,55,13.30
2015,05,29,01,56,13.30
2015,05,29,01,57,13.20
2015,05,29,01,58,13.20
2015,05,29,01,59,13.20
2015,05,29,02,00,13.20
2015,05,29,02,01,13.20
2015,05,29,02,02,13.20
2015,05,29,02,03,13.20
2015,05,29,02,04,13.10
2015,05,29,02,05,13.10
2015,05,29,02,06,13.10
2015,05,29,02,07,13.10
2015,05,29,02,08,13.10
2015,05,29,02,09,13.10
2015,05,29,02,10,13.10
2015,05,29,02,11,13.10
2015,05,29,02,12,13.10
2015,05,29,02,13,13.10
2015,05,29,02,14,13.10
2015,05,29,02,15,13.10
2015,05,29,02,16,13.00
2015,05,29,02,17,13.00
2015,05,29,02,18,13.00
2015,05,29,02,19,13.00
2015,05,29,02,20,13.00
2015,05,29,02,21,12.90
2015,05,29,02,22,12.90
2015,05,29,02,23,12.90
2015,05,29,02,24,12.90
2015,05,29,02,25,12.90
2015,05,29,02,26,12.90
2015,05,29,02,27,12.90
2015,05,29,02,28,12.90
2015,05,29,02,29,12.90
2015,05,29,02,30,12.80
2015,05,29,02,31,12.80
2015,05,29,02,32,12.80
2015,05,29,02,33,12.80
2015,05,29,02,34,12.80
2015,05,29,02,35,12.70
2015,05,29,02,36,12.70
2015,05,29,02,37,12.70
2015,05,29,02,38,12.70
2015,05,29,02,39,12.70
2015,05,29,02,40,12.70
2015,05,29,02,41,12.70
2015,05,29,02,42,12.70
2015,05,29,02,43,12.70
2015,05,29,02,44,12.70
2015,05,29,02,45,12.70
2015,05,29,02,46,12.70
2015,05,29,02,47,12.60
2015,05,29,02,48,12.60
2015,05,29,02,49,12.60
2015,05,29,02,50,12.60
2015,05,29,02,51,12.60
2015,05,29,02,52,12.60
2015,05,29,02,53,12.60
2015,05,29,02,54,12.60
2015,05,29,02,55,12.60
2015,05,29,02,56,12.60
2015,05,29,02,57,12.60
2015,05,29,02,58,12.60
2015,05,29,02,59,12.60
2015,05,29,03,00,12.50
2015,05,29,03,01,12.50
2015,05,29,03,02,12.50
2015,05,29,03,03,12.50
2015,05,29,03,04,12.40
2015,05,29,03,05,12.40
2015,05,29,03,06,12.40
2015,05,29,03,07,12.40
2015,05,29,03,08,12.30
2015,05,29,03,09,12.30
2015,05,29,03,10,12.30
2015,05,29,03,11,12.30
2015,05,29,03,12,12.20
2015,05,29,03,13,12.20
2015,05,29,03,14,12.20
2015,05,29,03,15,12.20
2015,05,29,03,16,12.20
2015,05,29,03,17,12.20
2015,05,29,03,18,12.20
2015,05,29,03,19,12.20
2015,05,29,03,20,12.10
2015,05,29,03,21,12.10
2015,05,29,03,22,12.10
2015,05,29,03,23,12.10
2015,05,29,03,24,12.10
2015,05,29,03,25,12.10
2015,05,29,03,26,12.10
2015,05,29,03,27,12.10
2015,05,29,03,28,12.10
2015,05,29,03,29,12.00
2015,05,29,03,30,12.00
2015,05,29,03,31,12.00
2015,05,29,03,32,11.90
2015,05,29,03,33,11.90
2015,05,29,03,34,11.90
2015,05,29,03,35,11.90
2015,05,29,03,36,11.90
2015,05,29,03,37,11.90
2015,05,29,03,38,11.80
2015,05,29,03,39,11.80
2015,05,29,03,40,11.80
2015,05,29,03,41,11.80
2015,05,29,03,42,11.90
2015,05,29,03,43,11.80
2015,05,29,03,44,11.80
2015,05,29,03,45,11.80
2015,05,29,03,46,11.80
2015,05,29,03,47,11.80
2015,05,29,03,48,11.80
2015,05,29,03,49,11.80
2015,05,29,03,50,11.80
2015,05,29,03,51,11.80
2015,05,29,03,52,11.80
2015,05,29,03,53,11.80
2015,05,29,03,54,11.80
2015,05,29,03,55,11.80
2015,05,29,03,56,11.80
2015,05,29,03,57,11.80
2015,05,29,03,58,11.80
2015,05,29,03,59,11.80
2015,05,29,04,00,11.80
2015,05,29,04,01,11.80
2015,05,29,04,02,11.80
2015,05,29,04,03,11.80
2015,05,29,04,04,11.80
2015,05,29,04,05,11.80
2015,05,29,04,06,11.80
2015,05,29,04,07,11.70
2015,05,29,04,08,11.70
2015,05,29,04,09,11.70
2015,05,29,04,10,11.70
2015,05,29,04,11,11.80
2015,05,29,04,12,11.80
2015,05,29,04,13,11.80
2015,05,29,04,14,11.80
2015,05,29,04,15,11.80
2015,05,29,04,16,11.80
2015,05,29,04,17,11.80
2015,05,29,04,18,11.80
2015,05,29,04,19,11.80
2015,05,29,04,20,11.80
2015,05,29,04,21,11.70
2015,05,29,04,22,11.70
2015,05,29,04,23,11.70
2015,05,29,04,24,11.70
2015,05,29,04,25,11.70
2015,05,29,04,26,11.70
2015,05,29,04,27,11.70
2015,05,29,04,28,11.70
2015,05,29,04,29,11.70
2015,05,29,04,30,11.70
2015,05,29,04,31,11.60
2015,05,29,04,32,11.60
2015,05,29,04,33,11.60
2015,05,29,04,34,11.60
2015,05,29,04,35,11.60
2015,05,29,04,36,11.60
2015,05,29,04,37,11.60
2015,05,29,04,38,11.60
2015,05,29,04,39,11.50
2015,05,29,04,40,11.50
2015,05,29,04,41,11.50
2015,05,29,04,42,11.50
2015,05,29,04,43,11.50
2015,05,29,04,44,11.40
2015,05,29,04,45,11.40
2015,05,29,04,46,11.40
2015,05,29,04,47,11.40
2015,05,29,04,48,11.40
2015,05,29,04,49,11.40
2015,05,29,04,50,11.30
2015,05,29,04,51,11.30
2015,05,29,04,52,11.30
2015,05,29,04,53,11.30
2015,05,29,04,54,11.30
2015,05,29,04,55,11.30
2015,05,29,04,56,11.20
2015,05,29,04,57,11.20
2015,05,29,04,58,11.20
2015,05,29,04,59,11.20
2015,05,29,05,00,11.20
2015,05,29,05,01,11.10
2015,05,29,05,02,11.10
2015,05,29,05,03,11.10
2015,05,29,05,04,11.10
2015,05,29,05,05,11.10
2015,05,29,05,06,11.10
2015,05,29,05,07,11.10
2015,05,29,05,08,11.10
2015,05,29,05,09,11.10
2015,05,29,05,10,11.10
2015,05,29,05,11,11.10
2015,05,29,05,12,11.10
2015,05,29,05,13,11.10
2015,05,29,05,14,11.10
2015,05,29,05,15,11.10
2015,05,29,05,16,11.10
2015,05,29,05,17,11.10
2015,05,29,05,18,11.10
2015,05,29,05,19,11.10
2015,05,29,05,20,11.00
2015,05,29,05,21,11.00
2015,05,29,05,22,11.00
2015,05,29,05,23,11.00
2015,05,29,05,24,11.00
2015,05,29,05,25,10.90
2015,05,29,05,26,10.90
2015,05,29,05,27,10.90
2015,05,29,05,28,10.90
2015,05,29,05,29,10.90
2015,05,29,05,30,10.90
2015,05,29,05,31,10.90
2015,05,29,05,32,10.90
2015,05,29,05,33,10.90
2015,05,29,05,34,10.90
2015,05,29,05,35,10.90
2015,05,29,05,36,10.80
2015,05,29,05,37,10.80
2015,05,29,05,38,10.80
2015,05,29,05,39,10.80
2015,05,29,05,40,10.80
2015,05,29,05,41,10.80
2015,05,29,05,42,10.80
2015,05,29,05,43,10.80
2015,05,29,05,44,10.80
2015,05,29,05,45,10.80
2015,05,29,05,46,10.80
2015,05,29,05,47,10.80
2015,05,29,05,48,10.80
2015,05,29,05,49,10.80
2015,05,29,05,50,10.80
2015,05,29,05,51,10.80
2015,05,29,05,52,10.70
2015,05,29,05,53,10.70
2015,05,29,05,54,10.70
2015,05,29,05,55,10.70
2015,05,29,05,56,10.70
2015,05,29,05,57,10.70
2015,05,29,05,58,10.70
2015,05,29,05,59,10.70
2015,05,29,06,00,10.70
2015,05,29,06,01,10.60
2015,05,29,06,02,10.70
2015,05,29,06,03,10.60
2015,05,29,06,04,10.60
2015,05,29,06,05,10.60
2015,05,29,06,06,10.60
2015,05,29,06,07,10.60
2015,05,29,06,08,10.60
2015,05,29,06,09,10.60
2015,05,29,06,10,10.70
2015,05,29,06,11,10.70
2015,05,29,06,12,10.70
2015,05,29,06,13,10.70
2015,05,29,06,14,10.70
2015,05,29,06,15,10.70
2015,05,29,06,16,10.70
2015,05,29,06,17,10.70
2015,05,29,06,18,10.80
2015,05,29,06,19,10.80
2015,05,29,06,20,10.80
2015,05,29,06,21,10.80
2015,05,29,06,22,10.80
2015,05,29,06,23,10.80
2015,05,29,06,24,10.90
2015,05,29,06,25,10.90
2015,05,29,06,26,10.90
2015,05,29,06,27,11.00
2015,05,29,06,28,11.00
2015,05,29,06,29,11.10
2015,05,29,06,30,11.10
2015,05,29,06,31,11.20
2015,05,29,06,32,11.20
2015,05,29,06,33,11.30
2015,05,29,06,34,11.30
2015,05,29,06,35,11.30
2015,05,29,06,36,11.40
2015,05,29,06,37,11.40
2015,05,29,06,38,11.50
2015,05,29,06,39,11.50
2015,05,29,06,40,11.60
2015,05,29,06,41,11.60
2015,05,29,06,42,11.60
2015,05,29,06,43,11.70
2015,05,29,06,44,11.70
2015,05,29,06,45,11.70
2015,05,29,06,46,11.80
2015,05,29,06,47,11.80
2015,05,29,06,48,11.80
2015,05,29,06,49,11.90
2015,05,29,06,50,11.90
2015,05,29,06,51,11.90
2015,05,29,06,52,11.90
2015,05,29,06,53,12.00
2015,05,29,06,54,12.00
2015,05,29,06,55,12.10
2015,05,29,06,56,12.10
2015,05,29,06,57,12.10
2015,05,29,06,58,12.10
2015,05,29,06,59,12.10
2015,05,29,07,00,12.20
2015,05,29,07,01,12.20
2015,05,29,07,02,12.20
2015,05,29,07,03,12.20
2015,05,29,07,04,12.20
2015,05,29,07,05,12.30
2015,05,29,07,06,12.30
2015,05,29,07,07,12.30
2015,05,29,07,08,12.30
2015,05,29,07,09,12.40
2015,05,29,07,10,12.40
2015,05,29,07,11,12.40
2015,05,29,07,12,12.50
2015,05,29,07,13,12.50
2015,05,29,07,14,12.50
2015,05,29,07,15,12.60
2015,05,29,07,16,12.60
2015,05,29,07,17,12.60
2015,05,29,07,18,12.70
2015,05,29,07,19,12.70
2015,05,29,07,20,12.70
2015,05,29,07,21,12.70
2015,05,29,07,22,12.70
2015,05,29,07,23,12.80
2015,05,29,07,24,12.80
2015,05,29,07,25,12.80
2015,05,29,07,26,12.90
2015,05,29,07,27,12.90
2015,05,29,07,28,12.90
2015,05,29,07,29,13.00
2015,05,29,07,30,13.00
2015,05,29,07,31,13.10
2015,05,29,07,32,13.10
2015,05,29,07,33,13.10
2015,05,29,07,34,13.20
2015,05,29,07,35,13.20
2015,05,29,07,36,13.20
2015,05,29,07,37,13.30
2015,05,29,07,38,13.30
2015,05,29,07,39,13.30
2015,05,29,07,40,13.30
2015,05,29,07,41,13.30
2015,05,29,07,42,13.40
2015,05,29,07,43,13.40
2015,05,29,07,44,13.40
2015,05,29,07,45,13.40
2015,05,29,07,46,13.40
2015,05,29,07,47,13.50
2015,05,29,07,48,13.50
2015,05,29,07,49,13.60
2015,05,29,07,50,13.60
2015,05,29,07,51,13.70
2015,05,29,07,52,13.70
2015,05,29,07,53,13.70
2015,05,29,07,54,13.70
2015,05,29,07,55,13.70
2015,05,29,07,56,13.70
2015,05,29,07,57,13.70
2015,05,29,07,58,13.70
2015,05,29,07,59,13.70
2015,05,29,08,00,13.80
2015,05,29,08,01,13.80
2015,05,29,08,02,13.80
2015,05,29,08,03,13.90
2015,05,29,08,04,13.90
2015,05,29,08,05,14.00
2015,05,29,08,06,14.00
2015,05,29,08,07,14.10
2015,05,29,08,08,14.20
2015,05,29,08,09,14.20
2015,05,29,08,10,14.30
2015,05,29,08,11,14.30
2015,05,29,08,12,14.30
2015,05,29,08,13,14.40
2015,05,29,08,14,14.40
2015,05,29,08,15,14.40
2015,05,29,08,16,14.40
2015,05,29,08,17,14.40
2015,05,29,08,18,14.40
2015,05,29,08,19,14.50
2015,05,29,08,20,14.50
2015,05,29,08,21,14.50
2015,05,29,08,22,14.60
2015,05,29,08,23,14.60
2015,05,29,08,24,14.70
2015,05,29,08,25,14.70
2015,05,29,08,26,14.70
2015,05,29,08,27,14.80
2015,05,29,08,28,14.80
2015,05,29,08,29,14.80
2015,05,29,08,30,14.80
2015,05,29,08,31,14.80
2015,05,29,08,32,14.80
2015,05,29,08,33,14.80
2015,05,29,08,34,14.90
2015,05,29,08,35,14.90
2015,05,29,08,36,15.00
2015,05,29,08,37,15.00
2015,05,29,08,38,15.10
2015,05,29,08,39,15.10
2015,05,29,08,40,15.10
2015,05,29,08,41,15.20
2015,05,29,08,42,15.20
2015,05,29,08,43,15.30
2015,05,29,08,44,15.40
2015,05,29,08,45,15.40
2015,05,29,08,46,15.40
2015,05,29,08,47,15.40
2015,05,29,08,48,15.40
2015,05,29,08,49,15.40
2015,05,29,08,50,15.40
2015,05,29,08,51,15.50
2015,05,29,08,52,15.50
2015,05,29,08,53,15.60
2015,05,29,08,54,15.50
2015,05,29,08,55,15.40
2015,05,29,08,56,15.30
2015,05,29,08,57,15.20
2015,05,29,08,58,15.10
2015,05,29,08,59,15.10
2015,05,29,09,00,15.10
2015,05,29,09,01,15.00
2015,05,29,09,02,15.00
2015,05,29,09,03,15.00
2015,05,29,09,04,15.00
2015,05,29,09,05,14.90
2015,05,29,09,06,14.90
2015,05,29,09,07,14.90
2015,05,29,09,08,14.90
2015,05,29,09,09,14.90
2015,05,29,09,10,14.90
2015,05,29,09,11,14.90
2015,05,29,09,12,14.90
2015,05,29,09,13,14.70
2015,05,29,09,14,14.70
2015,05,29,09,15,14.70
2015,05,29,09,16,14.70
2015,05,29,09,17,14.70
2015,05,29,09,18,14.70
2015,05,29,09,19,14.70
2015,05,29,09,20,14.70
2015,05,29,09,21,14.70
2015,05,29,09,22,14.70
2015,05,29,09,23,14.80
2015,05,29,09,24,14.70
2015,05,29,09,25,14.70
2015,05,29,09,26,14.70
2015,05,29,09,27,14.70
2015,05,29,09,28,14.70
2015,05,29,09,29,14.70
2015,05,29,09,30,14.80
2015,05,29,09,31,14.80
2015,05,29,09,32,14.80
2015,05,29,09,33,14.80
2015,05,29,09,34,14.80
2015,05,29,09,35,14.70
2015,05,29,09,36,14.70
2015,05,29,09,37,14.70
2015,05,29,09,38,14.70
2015,05,29,09,39,14.70
2015,05,29,09,40,14.80
2015,05,29,09,41,14.80
2015,05,29,09,42,14.70
2015,05,29,09,43,14.70
2015,05,29,09,44,14.80
2015,05,29,09,45,14.90
2015,05,29,09,46,14.90
2015,05,29,09,47,15.00
2015,05,29,09,48,15.10
2015,05,29,09,49,15.10
2015,05,29,09,50,15.10
2015,05,29,09,51,15.20
2015,05,29,09,52,15.20
2015,05,29,09,53,15.20
2015,05,29,09,54,15.30
2015,05,29,09,55,15.20
2015,05,29,09,56,15.20
2015,05,29,09,57,15.20
2015,05,29,09,58,15.10
2015,05,29,09,59,15.10
2015,05,29,10,00,15.10
2015,05,29,10,01,15.10
2015,05,29,10,02,15.10
2015,05,29,10,03,15.10
2015,05,29,10,04,15.20
2015,05,29,10,05,15.20
2015,05,29,10,06,15.30
2015,05,29,10,07,15.30
2015,05,29,10,08,15.30
2015,05,29,10,09,15.30
2015,05,29,10,10,15.20
2015,05,29,10,11,15.20
2015,05,29,10,12,15.20
2015,05,29,10,13,15.20
2015,05,29,10,14,15.20
2015,05,29,10,15,15.10
2015,05,29,10,16,15.10
2015,05,29,10,17,15.10
2015,05,29,10,18,15.20
2015,05,29,10,19,15.20
2015,05,29,10,20,15.20
2015,05,29,10,21,15.20
2015,05,29,10,22,15.20
2015,05,29,10,23,15.20
2015,05,29,10,24,15.20
2015,05,29,10,25,15.20
2015,05,29,10,26,15.20
2015,05,29,10,27,15.20
2015,05,29,10,28,15.20
2015,05,29,10,29,15.30
2015,05,29,10,30,15.30
2015,05,29,10,31,15.30
2015,05,29,10,32,15.30
2015,05,29,10,33,15.30
2015,05,29,10,34,15.40
2015,05,29,10,35,15.50
2015,05,29,10,36,15.50
2015,05,29,10,37,15.60
2015,05,29,10,38,15.60
2015,05,29,10,39,15.60
2015,05,29,10,40,15.70
2015,05,29,10,41,15.70
2015,05,29,10,42,15.70
2015,05,29,10,43,15.70
2015,05,29,10,44,15.70
2015,05,29,10,45,15.70
2015,05,29,10,46,15.70
2015,05,29,10,47,15.80
2015,05,29,10,48,15.70
2015,05,29,10,49,15.70
2015,05,29,10,50,15.70
2015,05,29,10,51,15.70
2015,05,29,10,52,15.70
2015,05,29,10,53,15.70
2015,05,29,10,54,15.70
2015,05,29,10,55,15.60
2015,05,29,10,56,15.60
2015,05,29,10,57,15.60
2015,05,29,10,58,15.60
2015,05,29,10,59,15.70
2015,05,29,11,00,15.70
2015,05,29,11,01,15.70
2015,05,29,11,02,15.70
2015,05,29,11,03,15.70
2015,05,29,11,04,15.70
2015,05,29,11,05,15.70
2015,05,29,11,06,15.80
2015,05,29,11,07,15.80
2015,05,29,11,08,15.80
2015,05,29,11,09,15.80
2015,05,29,11,10,15.90
2015,05,29,11,11,15.90
2015,05,29,11,12,15.90
2015,05,29,11,13,15.90
2015,05,29,11,14,15.90
2015,05,29,11,15,16.00
2015,05,29,11,16,16.00
2015,05,29,11,17,16.00
2015,05,29,11,18,15.90
2015,05,29,11,19,15.90
2015,05,29,11,20,15.80
2015,05,29,11,21,15.80
2015,05,29,11,22,15.80
2015,05,29,11,23,15.90
2015,05,29,11,24,15.90
2015,05,29,11,25,16.00
2015,05,29,11,26,16.10
2015,05,29,11,27,16.10
2015,05,29,11,28,16.20
2015,05,29,11,29,16.20
2015,05,29,11,30,16.20
2015,05,29,11,31,16.30
2015,05,29,11,32,16.30
2015,05,29,11,33,16.30
2015,05,29,11,34,16.30
2015,05,29,11,35,16.30
2015,05,29,11,36,16.40
2015,05,29,11,37,16.40
2015,05,29,11,38,16.50
2015,05,29,11,39,16.50
2015,05,29,11,40,16.50
2015,05,29,11,41,16.50
2015,05,29,11,42,16.50
2015,05,29,11,43,16.40
2015,05,29,11,44,16.30
2015,05,29,11,45,16.30
2015,05,29,11,46,16.30
2015,05,29,11,47,16.30
2015,05,29,11,48,16.30
2015,05,29,11,49,16.40
2015,05,29,11,50,16.40
2015,05,29,11,51,16.40
2015,05,29,11,52,16.50
2015,05,29,11,53,16.60
2015,05,29,11,54,16.60
2015,05,29,11,55,16.60
2015,05,29,11,56,16.70
2015,05,29,11,57,16.70
2015,05,29,11,58,16.60
2015,05,29,11,59,16.60
2015,05,29,12,00,16.60
2015,05,29,12,01,16.60
2015,05,29,12,02,16.60
2015,05,29,12,03,16.60
2015,05,29,12,04,16.70
2015,05,29,12,05,16.70
2015,05,29,12,06,16.80
2015,05,29,12,07,16.80
2015,05,29,12,08,16.80
2015,05,29,12,09,16.80
2015,05,29,12,10,16.80
2015,05,29,12,11,16.90
2015,05,29,12,12,16.90
2015,05,29,12,13,17.00
2015,05,29,12,14,17.10
2015,05,29,12,15,17.10
2015,05,29,12,16,17.20
2015,05,29,12,17,17.20
2015,05,29,12,18,17.30
2015,05,29,12,19,17.30
2015,05,29,12,20,17.40
2015,05,29,12,21,17.50
2015,05,29,12,22,17.60
2015,05,29,12,23,17.60
2015,05,29,12,24,17.60
2015,05,29,12,25,17.60
2015,05,29,12,26,17.70
2015,05,29,12,27,17.80
2015,05,29,12,28,17.80
2015,05,29,12,29,17.90
2015,05,29,12,30,17.90
2015,05,29,12,31,18.00
2015,05,29,12,32,18.00
2015,05,29,12,33,18.10
2015,05,29,12,34,18.20
2015,05,29,12,35,18.30
2015,05,29,12,36,18.30
2015,05,29,12,37,18.30
2015,05,29,12,38,18.40
2015,05,29,12,39,18.30
2015,05,29,12,40,18.30
2015,05,29,12,41,18.30
2015,05,29,12,42,18.30
2015,05,29,12,43,18.20
2015,05,29,12,44,18.20
2015,05,29,12,45,18.20
2015,05,29,12,46,18.20
2015,05,29,12,47,18.20
2015,05,29,12,48,18.30
2015,05,29,12,49,18.40
2015,05,29,12,50,18.50
2015,05,29,12,51,18.50
2015,05,29,12,52,18.60
2015,05,29,12,53,18.70
2015,05,29,12,54,18.80
2015,05,29,12,55,18.90
2015,05,29,12,56,19.00
2015,05,29,12,57,19.10
2015,05,29,12,58,19.10
2015,05,29,12,59,19.10
2015,05,29,13,00,19.10
2015,05,29,13,01,19.10
2015,05,29,13,02,19.10
2015,05,29,13,03,19.10
2015,05,29,13,04,19.20
2015,05,29,13,05,19.30
2015,05,29,13,06,19.30
2015,05,29,13,07,19.30
2015,05,29,13,08,19.30
2015,05,29,13,09,19.40
2015,05,29,13,10,19.40
2015,05,29,13,11,19.40
2015,05,29,13,12,19.40
2015,05,29,13,13,19.40
2015,05,29,13,14,19.30
2015,05,29,13,15,19.30
2015,05,29,13,16,19.20
2015,05,29,13,17,19.10
2015,05,29,13,18,19.00
2015,05,29,13,19,19.00
2015,05,29,13,20,18.90
2015,05,29,13,21,18.90
2015,05,29,13,22,18.80
2015,05,29,13,23,18.80
2015,05,29,13,24,18.80
2015,05,29,13,25,18.70
2015,05,29,13,26,18.70
2015,05,29,13,27,18.70
2015,05,29,13,28,18.70
2015,05,29,13,29,18.60
2015,05,29,13,30,18.60
2015,05,29,13,31,18.70
2015,05,29,13,32,18.70
2015,05,29,13,33,18.80
2015,05,29,13,34,18.80
2015,05,29,13,35,18.70
2015,05,29,13,36,18.60
2015,05,29,13,37,18.60
2015,05,29,13,38,18.60
2015,05,29,13,39,18.60
2015,05,29,13,40,18.70
2015,05,29,13,41,18.80
2015,05,29,13,42,18.80
2015,05,29,13,43,18.80
2015,05,29,13,44,18.80
2015,05,29,13,45,18.80
2015,05,29,13,46,18.70
2015,05,29,13,47,18.80
2015,05,29,13,48,18.80
2015,05,29,13,49,18.90
2015,05,29,13,50,18.90
2015,05,29,13,51,19.00
2015,05,29,13,52,19.00
2015,05,29,13,53,19.00
2015,05,29,13,54,19.10
2015,05,29,13,55,19.20
2015,05,29,13,56,19.30
2015,05,29,13,57,19.40
2015,05,29,13,58,19.50
2015,05,29,13,59,19.60
2015,05,29,14,00,19.70
2015,05,29,14,01,19.70
2015,05,29,14,02,19.70
2015,05,29,14,03,19.70
2015,05,29,14,04,19.70
2015,05,29,14,05,19.70
2015,05,29,14,06,19.70
2015,05,29,14,07,19.80
2015,05,29,14,08,19.80
2015,05,29,14,09,19.80
2015,05,29,14,10,19.80
2015,05,29,14,11,19.90
2015,05,29,14,12,19.90
2015,05,29,14,13,20.00
2015,05,29,14,14,20.10
2015,05,29,14,15,20.10
2015,05,29,14,16,20.10
2015,05,29,14,17,20.20
2015,05,29,14,18,20.20
2015,05,29,14,19,20.20
2015,05,29,14,20,20.30
2015,05,29,14,21,20.20
2015,05,29,14,22,20.20
2015,05,29,14,23,20.30
2015,05,29,14,24,20.30
2015,05,29,14,25,20.40
2015,05,29,14,26,20.40
2015,05,29,14,27,20.30
2015,05,29,14,28,20.30
2015,05,29,14,29,20.30
2015,05,29,14,30,20.30
2015,05,29,14,31,20.30
2015,05,29,14,32,20.30
2015,05,29,14,33,20.30
2015,05,29,14,34,20.30
2015,05,29,14,35,20.40
2015,05,29,14,36,20.40
2015,05,29,14,37,20.40
2015,05,29,14,38,20.40
2015,05,29,14,39,20.40
2015,05,29,14,40,20.30
2015,05,29,14,41,20.30
2015,05,29,14,42,20.30
2015,05,29,14,43,20.40
2015,05,29,14,44,20.40
2015,05,29,14,45,20.40
2015,05,29,14,46,20.50
2015,05,29,14,47,20.50
2015,05,29,14,48,20.60
2015,05,29,14,49,20.60
2015,05,29,14,50,20.60
2015,05,29,14,51,20.50
2015,05,29,14,52,20.50
2015,05,29,14,53,20.40
2015,05,29,14,54,20.40
2015,05,29,14,55,20.50
2015,05,29,14,56,20.60
2015,05,29,14,57,20.60
2015,05,29,14,58,20.60
2015,05,29,14,59,20.60
2015,05,29,15,00,20.60
2015,05,29,15,01,20.60
2015,05,29,15,02,20.60
2015,05,29,15,03,20.70
2015,05,29,15,04,20.70
2015,05,29,15,05,20.80
2015,05,29,15,06,20.80
2015,05,29,15,07,20.90
2015,05,29,15,08,20.90
2015,05,29,15,09,20.90
2015,05,29,15,10,20.90
2015,05,29,15,11,20.90
2015,05,29,15,12,20.90
2015,05,29,15,13,20.90
2015,05,29,15,14,20.80
2015,05,29,15,15,20.90
2015,05,29,15,16,21.00
2015,05,29,15,17,21.10
2015,05,29,15,18,21.20
2015,05,29,15,19,21.30
2015,05,29,15,20,21.20
2015,05,29,15,21,21.00
2015,05,29,15,22,20.80
2015,05,29,15,23,20.60
2015,05,29,15,24,20.50
2015,05,29,15,25,20.60
2015,05,29,15,26,20.50
2015,05,29,15,27,20.50
2015,05,29,15,28,20.50
2015,05,29,15,29,20.60
2015,05,29,15,30,20.70
2015,05,29,15,31,20.70
2015,05,29,15,32,20.80
2015,05,29,15,33,20.80
2015,05,29,15,34,20.80
2015,05,29,15,35,21.00
2015,05,29,15,36,21.10
2015,05,29,15,37,21.20
2015,05,29,15,38,21.30
2015,05,29,15,39,21.30
2015,05,29,15,40,21.40
2015,05,29,15,41,21.50
2015,05,29,15,42,21.60
2015,05,29,15,43,21.50
2015,05,29,15,44,21.50
2015,05,29,15,45,21.40
2015,05,29,15,46,21.40
2015,05,29,15,47,21.40
2015,05,29,15,48,21.40
2015,05,29,15,49,21.40
2015,05,29,15,50,21.50
2015,05,29,15,51,21.50
2015,05,29,15,52,21.50
2015,05,29,15,53,21.60
2015,05,29,15,54,21.60
2015,05,29,15,55,21.60
2015,05,29,15,56,21.60
2015,05,29,15,57,21.50
2015,05,29,15,58,21.40
2015,05,29,15,59,21.40
2015,05,29,16,00,21.30
2015,05,29,16,01,21.10
2015,05,29,16,02,21.00
2015,05,29,16,03,21.00
2015,05,29,16,04,20.90
2015,05,29,16,05,20.90
2015,05,29,16,06,21.00
2015,05,29,16,07,21.00
2015,05,29,16,08,21.00
2015,05,29,16,09,21.00
2015,05,29,16,10,21.00
2015,05,29,16,11,21.10
2015,05,29,16,12,21.20
2015,05,29,16,13,21.30
2015,05,29,16,14,21.40
2015,05,29,16,15,21.50
2015,05,29,16,16,21.60
2015,05,29,16,17,21.60
2015,05,29,16,18,21.70
2015,05,29,16,19,21.70
2015,05,29,16,20,21.70
2015,05,29,16,21,21.70
2015,05,29,16,22,21.70
2015,05,29,16,23,21.80
2015,05,29,16,24,21.80
2015,05,29,16,25,21.80
2015,05,29,16,26,21.80
2015,05,29,16,27,21.70
2015,05,29,16,28,21.70
2015,05,29,16,29,21.60
2015,05,29,16,30,21.60
2015,05,29,16,31,21.60
2015,05,29,16,32,21.60
2015,05,29,16,33,21.70
2015,05,29,16,34,21.80
2015,05,29,16,35,21.70
2015,05,29,16,36,21.70
2015,05,29,16,37,21.60
2015,05,29,16,38,21.60
2015,05,29,16,39,21.60
2015,05,29,16,40,21.70
2015,05,29,16,41,21.70
2015,05,29,16,42,21.60
2015,05,29,16,43,21.60
2015,05,29,16,44,21.70
2015,05,29,16,45,21.70
2015,05,29,16,46,21.80
2015,05,29,16,47,21.70
2015,05,29,16,48,21.80
2015,05,29,16,49,21.80
2015,05,29,16,50,21.80
2015,05,29,16,51,21.80
2015,05,29,16,52,21.80
2015,05,29,16,53,21.80
2015,05,29,16,54,21.80
2015,05,29,16,55,21.80
2015,05,29,16,56,21.90
2015,05,29,16,57,22.00
2015,05,29,16,58,22.10
2015,05,29,16,59,22.20
2015,05,29,17,00,22.30
2015,05,29,17,01,22.40
2015,05,29,17,02,22.40
2015,05,29,17,03,22.30
2015,05,29,17,04,22.20
2015,05,29,17,05,22.20
2015,05,29,17,06,22.20
2015,05,29,17,07,22.10
2015,05,29,17,08,22.10
2015,05,29,17,09,22.10
2015,05,29,17,10,22.10
2015,05,29,17,11,22.10
2015,05,29,17,12,22.10
2015,05,29,17,13,22.10
2015,05,29,17,14,22.10
2015,05,29,17,15,22.10
2015,05,29,17,16,22.00
2015,05,29,17,17,22.00
2015,05,29,17,18,21.90
2015,05,29,17,19,21.90